Weather History for Valparaiso, FL

Change the Weather History Date:

Wednesday, August 7, 2013

  Actual Average Record
Temperature  
Mean Temperature 81 °F -  
Max Temperature 91 °F 90 °F 99 °F (1954)
Min Temperature 72 °F 71 °F 62 °F (1948)
Cooling Degree Days 16    
Growing Degree Days 31 (Base 50)    
Moisture  
Dew Point 75 °F    
Average Humidity 85    
Maximum Humidity 96    
Minimum Humidity 64    
Precipitation  
Precipitation 0.23 in - - ()
Sea Level Pressure  
Sea Level Pressure 29.97 in    
Wind  
Wind Speed 5 mph (East)    
Max Wind Speed 14 mph    
Max Gust Speed 21 mph    
Visibility 10 miles    
Events Rain , Thunderstorm    
Averages and records for this station are not official NWS values.
T = Trace of Precipitation, MM = Missing Value Source: NWS Daily Summary

Daily Weather History Graph

Daily Weather History Graph

Search for Another Location

Airport:

Trip Planner

Search our weather history database for the weather conditions in past years. The results will help you decide how hot, cold, wet, or windy it might be!

Date:

Astronomy

Aug. 07, 2013 Rise Set
Actual Time 6:08 AM CDT 7:35 PM CDT
Civil Twilight 5:42 AM CDT 8:00 PM CDT
Nautical Twilight 5:11 AM CDT 8:31 PM CDT
Astronomical Twilight 4:39 AM CDT 9:03 PM CDT
Moon 6:48 AM CDT (8/7) 7:52 PM CDT (8/7)
Length of Visible Light 14h 18m
Length of Day
13h 27m
New Moon, 1% of the Moon is Illuminated
Aug 7
New Moon
Aug 14
First Quarter
Aug 20
Full
Aug 28
Last Quarter
Sep 5
New

Hourly Weather History & Observations

Time (CDT) Temp. Heat Index Dew Point Humidity Pressure Visibility Wind Dir Wind Speed Gust Speed Precip Events Conditions
12:55 AM 75.4 °F - 73.6 °F 94% 29.94 in 10.0 mi North 3.5 mph - N/A   Mostly Cloudy
1:55 AM 73.8 °F - 72.3 °F 95% 29.95 in 10.0 mi North 4.6 mph - N/A   Mostly Cloudy
2:55 AM 73.6 °F - 72.1 °F 95% 29.95 in 10.0 mi North 3.5 mph - N/A   Mostly Cloudy
3:55 AM 73.4 °F - 72.1 °F 96% 29.94 in 10.0 mi North 3.5 mph - N/A   Scattered Clouds
4:55 AM 73.4 °F - 72.0 °F 95% 29.96 in 10.0 mi NW 2.3 mph - N/A   Scattered Clouds
5:55 AM 72.9 °F - 71.4 °F 95% 29.96 in 10.0 mi NNW 3.5 mph - N/A   Mostly Cloudy
6:55 AM 73.0 °F - 70.9 °F 93% 29.97 in 10.0 mi NNE 4.6 mph - N/A   Scattered Clouds
7:55 AM 75.4 °F - 71.8 °F 89% 30.00 in 10.0 mi North 4.6 mph - N/A   Scattered Clouds
8:55 AM 79.3 °F - 73.0 °F 81% 30.02 in 10.0 mi NE 4.6 mph - N/A   Scattered Clouds
9:55 AM 83.7 °F 91.3 °F 75.0 °F 75% 30.01 in 10.0 mi NNE 1.2 mph - N/A   Scattered Clouds
10:25 AM 89.6 °F 102.2 °F 77.0 °F 66% 29.94 in 10.0 mi South 13.8 mph - N/A Thunderstorm Thunderstorm
10:55 AM 86.7 °F 96.4 °F 75.4 °F 69% 30.02 in 10.0 mi ESE 3.5 mph - N/A   Scattered Clouds
11:55 AM 88.3 °F 98.9 °F 75.7 °F 66% 30.01 in 10.0 mi Variable 3.5 mph - N/A   Mostly Cloudy
12:55 PM 89.8 °F 101.5 °F 76.3 °F 64% 30.00 in 10.0 mi Variable 3.5 mph - N/A   Mostly Cloudy
2:56 PM 90.7 °F 104.5 °F 77.4 °F 65% 29.95 in 10.0 mi South 9.2 mph - N/A   Scattered Clouds
3:59 PM 82.0 °F 89.4 °F 76.1 °F 82% 29.97 in 2.0 mi ESE 13.8 mph 20.7 mph 0.04 in Rain , Thunderstorm Light Thunderstorms and Rain
4:22 PM 78.8 °F - 75.2 °F 89% 29.94 in 10.0 mi South 5.8 mph - N/A Thunderstorm Thunderstorm
4:41 PM 80.6 °F 87.1 °F 77.0 °F 89% 29.94 in 10.0 mi South 6.9 mph - N/A Thunderstorm Mostly Cloudy
4:55 PM 80.4 °F 87.0 °F 77.7 °F 91% 29.96 in 10.0 mi SSE 4.6 mph - 0.19 in   Mostly Cloudy
5:10 PM 80.6 °F 87.1 °F 77.0 °F 89% 29.94 in 10.0 mi SSE 5.8 mph - N/A   Mostly Cloudy
5:55 PM 83.7 °F 91.7 °F 75.6 °F 76% 29.94 in 10.0 mi ESE 6.9 mph - N/A   Mostly Cloudy
6:55 PM 82.6 °F 90.8 °F 76.5 °F 82% 29.95 in 10.0 mi ESE 5.8 mph - N/A   Mostly Cloudy
7:57 PM 81.1 °F 88.2 °F 77.0 °F 87% 29.97 in 10.0 mi SSE 3.5 mph - N/A   Scattered Clouds
8:55 PM 80.8 °F 87.6 °F 77.4 °F 89% 29.99 in 10.0 mi South 4.6 mph - N/A   Scattered Clouds
9:55 PM 80.2 °F 86.5 °F 77.4 °F 91% 29.99 in 10.0 mi SE 4.6 mph - N/A   Clear
10:55 PM 81.0 °F 87.9 °F 77.2 °F 88% 30.00 in 10.0 mi East 3.5 mph - N/A   Clear
11:55 PM 79.2 °F - 76.3 °F 91% 30.00 in 10.0 mi NNE 4.6 mph - N/A   Clear